Flag for Germany Weather past 2 weeks in Wolfsburg, Lower Saxony, Germany

Now
63 °F

Passing clouds.


Feels Like: 63 °F
Forecast: 50 / 64 °F
Wind: 5 mph from North

Location: Braunschweig

Current Time: Sep 3, 2015 at 6:16:26 PM

Latest Report: Sep 3, 2015 at 5:50 PM


Visibility: N/A

Pressure: 29.92 "Hg

Humidity: 68%

Dew point: 52 °F

Location of WolfsburgLocation

Historic Weather in Wolfsburg — Graph

°F

Wolfsburg temperature yesterday

Maximum temperature yesterday: 68 °F (at 5:20 PM)
Minimum temperature yesterday: 54 °F (at 6:50 AM)
Average temperature yesterday: 62 °F

Past Weeks' High & Low Weather Summary

 TemperatureHumidityPressure
High91 °F (Aug 31, 4:50 PM)100% (Aug 20, 6:50 AM)30.30 "Hg (Aug 20, 6:50 AM)
Low50 °F (Aug 21, 6:50 AM)30% (Aug 21, 2:50 PM)29.65 "Hg (Aug 24, 5:20 PM)
Average68 °F71%29.97 "Hg
* Reported Aug 19 5:20 PM — Sep 3 5:20 PM, Wolfsburg, Weather by CustomWeather, © 2015

Note: Actual official high and low records may vary slightly from our data, if they occured in-between our weather recording intervals... More about our weather records

Advertising

Wolfsburg weather history for previous 24 hours

 ConditionsComfort  
Time TempWeatherWind HumidityBarometerVisibility
5:20 PM
Thu, Sep 3
63 °FScattered clouds.9 mph68%29.92 "HgN/A
4:50 PM66 °FSunny.2 mph60%29.92 "Hg10 mi
4:20 PM64 °FPassing clouds.3 mph68%29.92 "HgN/A
3:50 PM63 °FPartly sunny.3 mph73%29.92 "HgN/A
3:20 PM64 °FBroken clouds.3 mph60%29.92 "HgN/A
2:50 PM64 °FScattered clouds.2 mph64%29.92 "HgN/A
2:20 PM63 °FScattered clouds.2 mph68%29.92 "HgN/A
1:50 PM63 °FScattered clouds.3 mph64%29.95 "HgN/A
1:20 PM63 °FScattered clouds.3 mph73%29.95 "HgN/A
12:50 PM61 °FScattered clouds.5 mph77%29.95 "HgN/A
12:20 PM61 °FPartly sunny.8 mph77%29.95 "HgN/A
11:50 AM61 °FBroken clouds.3 mph72%29.95 "HgN/A
11:20 AM61 °FBroken clouds.No wind77%29.95 "HgN/A
10:50 AM59 °FPassing clouds.No wind82%29.95 "HgN/A
10:20 AM59 °FSunny.2 mph82%29.95 "Hg10 mi
9:50 AM55 °FMostly cloudy.No wind100%29.95 "HgN/A
9:20 AM55 °FMostly cloudy.6 mph100%29.95 "Hg4 mi
8:50 AM54 °FCloudy.No wind100%29.95 "HgN/A
8:20 AM54 °FMostly cloudy.No wind100%29.95 "HgN/A
7:50 AM52 °FMostly cloudy.No wind100%29.95 "HgN/A
7:20 AM52 °FOvercast.No wind100%29.95 "HgN/A
6:50 AM52 °FClear.No wind100%29.95 "Hg10 mi
6:20 AM52 °FMostly cloudy.1 mph100%29.95 "HgN/A
5:50 AM50 °FMostly cloudy.No wind100%29.95 "HgN/A
5:20 AM52 °FClear.No wind100%29.95 "Hg10 mi
9:20 PM
Wed, Sep 2
61 °FClear.7 mph72%29.98 "Hg10 mi
8:50 PM63 °FSunny.3 mph64%29.98 "Hg10 mi
8:20 PM61 °FSunny.3 mph68%29.98 "Hg10 mi
7:50 PM63 °FSunny.5 mph59%29.98 "Hg10 mi
7:20 PM64 °FScattered clouds.6 mph56%29.98 "HgN/A
6:50 PM64 °FScattered clouds.6 mph52%29.98 "HgN/A
6:20 PM66 °FPassing clouds.8 mph49%29.98 "HgN/A
Weather by CustomWeather, © 2015

See weather overviewHow to use our weather pages